DateTimeUTC,F1_A11,F1_S11,BsB_S11,BsG_S11,BsR_S11,BbsB_S11,BbsG_S11,BbsR_S11,BaB_A11,BaG_A11,BaR_A11,Tu_S11,T_S11,Uu_S11,U_S11,P_S11,T1_A11
2021-12-11T08:00:00Z,00000200,21000000,,,,,,,0000.21,0000.21,0000.26,20.8,27.3,,00.0,0650.8,31.2
2021-12-11T08:01:00Z,00000200,21000000,,,,,,,0000.06,0000.24,-000.01,20.8,27.3,,00.0,0650.8,31.2
2021-12-11T08:02:00Z,00000200,21000000,,,,,,,0000.13,0000.18,0000.42,20.8,27.3,,00.0,0650.8,31.2
2021-12-11T08:03:00Z,00000200,61000000,,,,,,,0000.59,0000.01,0000.09,20.8,27.3,,00.0,0650.9,31.2
2021-12-11T08:04:00Z,00000200,41000000,0000.21,-000.18,0000.25,0000.21,0000.10,0000.31,0000.43,0000.83,0000.41,21.1,27.3,,00.0,0651.8,31.2
2021-12-11T08:05:00Z,00000200,01000000,0000.64,0000.48,0000.30,0000.17,-000.11,0000.14,0000.09,-000.09,0000.09,21.1,27.3,,00.0,0651.8,31.2
2021-12-11T08:06:00Z,00000200,01000000,0001.14,0000.20,0000.44,0000.33,0000.22,0000.35,0000.29,0000.78,-000.03,21.2,27.3,,00.0,0651.8,31.2
2021-12-11T08:07:00Z,00000200,01000000,0001.10,-000.00,0000.36,0000.71,0000.31,-000.03,0000.09,-000.39,0000.21,21.2,27.3,,00.0,0651.9,31.2
2021-12-11T08:08:00Z,00000200,01000000,0000.19,0000.14,-000.32,0000.07,0000.38,-000.42,0000.35,0000.38,0000.17,21.2,27.3,,00.0,0651.9,31.2
2021-12-11T08:09:00Z,00000200,01000000,0000.56,0000.40,0000.49,0000.41,0000.06,0000.11,-000.13,-000.06,-000.29,21.3,27.3,,00.0,0651.9,31.2
2021-12-11T08:10:00Z,00000200,01000000,0000.08,0000.22,0000.07,-000.05,0000.24,0000.08,0000.38,0000.44,0000.58,21.3,27.3,,00.0,0651.9,31.2
2021-12-11T08:11:00Z,00000200,01000000,0000.36,0000.25,0000.06,0000.28,-000.13,-000.04,0000.03,0000.20,0000.09,21.3,27.3,,00.0,0651.9,31.2
2021-12-11T08:12:00Z,00000200,01000000,0000.56,0000.14,0000.12,0000.34,0000.10,0000.27,0000.91,0000.56,0000.13,21.3,27.4,,00.0,0651.9,31.2
2021-12-11T08:13:00Z,00000200,01000000,0000.99,0000.42,0000.38,0000.35,0000.48,-000.03,-000.23,-000.13,0000.20,21.4,27.4,,00.0,0652.0,31.2
2021-12-11T08:14:00Z,00000200,01000000,0000.70,0000.34,0000.03,-000.30,0000.00,-000.16,0000.07,-000.08,0000.08,21.4,27.4,,00.0,0652.0,31.3
2021-12-11T08:15:00Z,00000200,01000000,0000.89,0000.07,-000.05,-000.31,-000.05,0000.25,0000.36,0000.74,0000.33,21.4,27.4,,00.0,0652.0,31.3
2021-12-11T08:16:00Z,00000200,01000000,0000.93,-000.10,0000.12,0000.51,0000.11,0000.09,0000.41,-000.13,0000.18,21.4,27.4,,00.0,0652.0,31.3
2021-12-11T08:17:00Z,00000200,01000000,0000.16,0000.20,0000.11,-000.51,0000.08,0000.07,0000.03,0000.54,0000.33,21.5,27.5,,00.0,0652.0,31.3
2021-12-11T08:18:00Z,00000200,01000000,0000.43,-000.06,0000.12,0000.80,0000.20,0000.27,0000.28,0000.28,0000.01,21.5,27.5,,00.0,0652.0,31.3
2021-12-11T08:19:00Z,00000200,01000000,0001.49,0000.13,0000.15,0000.95,0000.00,-000.37,0000.71,0000.06,0000.39,21.5,27.5,,00.0,0652.0,31.3
2021-12-11T08:20:00Z,00000200,01000000,0000.71,-000.03,-000.01,-000.23,0000.03,-000.07,0000.29,0000.23,-000.07,21.6,27.5,,00.0,0652.1,31.3
2021-12-11T08:21:00Z,00000200,01000000,0000.74,0000.13,0000.33,0000.69,0000.09,0000.10,-000.13,0000.38,0000.47,21.6,27.6,,00.0,0652.1,31.3
2021-12-11T08:22:00Z,00000200,01000000,0000.64,0000.35,0000.13,0000.44,0000.40,-000.08,0000.54,0000.33,0000.07,21.6,27.6,,00.0,0652.1,31.3
2021-12-11T08:23:00Z,00000200,01000000,0000.47,0000.51,0000.25,0000.46,0000.42,-000.13,0000.20,0000.41,0000.27,21.6,27.6,,00.0,0652.1,31.3
2021-12-11T08:24:00Z,00000200,01000000,0001.11,0000.25,0000.22,0000.07,-000.05,0000.38,0000.65,0000.46,0000.10,21.7,27.6,,00.0,0652.1,31.3
2021-12-11T08:25:00Z,00000200,01000000,0001.04,0000.43,0000.03,0000.35,0000.18,0000.09,-000.05,0000.19,0000.29,21.7,27.7,,00.0,0652.0,31.4
2021-12-11T08:26:00Z,00000200,01000000,0000.43,0000.07,0000.38,0000.09,0000.38,0000.05,0000.54,0000.32,0000.19,21.7,27.7,,00.0,0652.0,31.4
2021-12-11T08:27:00Z,00000200,01000000,0000.66,-000.13,0000.21,0000.39,-000.20,-000.16,0000.23,-000.12,0000.49,21.7,27.7,,00.0,0652.0,31.4
2021-12-11T08:28:00Z,00000200,01000000,0000.05,0000.61,0000.40,0000.08,-000.09,0000.54,0000.04,0000.52,-000.20,21.7,27.7,,00.0,0652.0,31.4
2021-12-11T08:29:00Z,00000200,01000000,0000.23,0000.34,0000.08,0000.24,0000.05,0000.08,0000.18,0000.31,0000.17,21.8,27.7,,00.0,0652.1,31.4
2021-12-11T08:30:00Z,00000200,01000000,0001.45,0000.14,-000.20,0001.01,-000.01,-000.09,0000.32,0000.15,0000.34,21.8,27.7,,00.0,0652.1,31.4
2021-12-11T08:31:00Z,00000200,01000000,0000.18,0000.07,0000.35,0000.27,0000.05,-000.00,0000.34,0000.27,0000.17,21.8,27.8,,00.0,0652.2,31.4
2021-12-11T08:32:00Z,00000200,01000000,0001.39,0000.08,0000.25,-000.03,0000.06,0000.01,0000.38,0000.18,-000.10,21.9,27.8,,00.0,0652.2,31.4
2021-12-11T08:33:00Z,00000200,01000000,-000.31,0000.09,0000.29,0000.87,-000.07,0000.05,0000.21,-000.11,0000.58,21.9,27.8,,00.0,0652.2,31.4
2021-12-11T08:34:00Z,00000200,01000000,0000.81,0000.21,0000.14,0000.37,0000.19,0000.05,0000.14,0000.39,-000.03,21.9,27.8,,00.0,0652.2,31.5
2021-12-11T08:35:00Z,00000200,01000000,-000.14,0000.22,0000.07,0000.35,0000.18,-000.06,-000.02,0000.00,0000.09,21.9,27.8,,00.0,0652.2,31.5
2021-12-11T08:36:00Z,00000200,01000000,0000.39,0000.33,-000.14,0000.23,-000.05,-000.03,0000.39,0000.31,0000.12,21.9,27.8,,00.0,0652.2,31.5
2021-12-11T08:37:00Z,00000200,01000000,0000.52,0000.13,0000.05,0000.25,0000.34,0000.05,0000.18,0000.22,0000.15,21.9,27.9,,00.0,0652.2,31.5
2021-12-11T08:38:00Z,00000200,01000000,-000.13,0000.03,0000.26,0000.09,0000.45,0000.22,0000.43,0000.08,0000.16,21.8,27.8,,00.0,0652.2,31.4
2021-12-11T08:39:00Z,00000200,01000000,0000.74,0000.39,0000.02,0000.10,0000.27,-000.14,0000.28,0000.28,0000.44,21.7,27.8,,00.0,0652.2,31.4
2021-12-11T08:40:00Z,00000200,01000000,0000.45,0000.10,0000.24,0000.48,0000.16,-000.16,0000.18,0000.31,-000.08,21.6,27.8,,00.0,0652.1,31.4
2021-12-11T08:41:00Z,00000200,01000000,0000.53,0000.27,0000.09,-000.19,0000.24,0000.19,-000.12,0000.04,0000.23,21.5,27.7,,00.0,0652.1,31.4
2021-12-11T08:42:00Z,00000200,01000000,0000.38,0000.32,-000.18,0000.96,-000.28,-000.19,0000.15,0000.08,-000.06,21.4,27.7,,00.0,0652.1,31.3
2021-12-11T08:43:00Z,00000200,01000000,0001.51,0000.47,-000.02,0000.40,-000.13,0000.15,0000.17,-000.01,0000.17,21.4,27.6,,00.0,0652.1,31.3
2021-12-11T08:44:00Z,00000200,01000000,0000.62,0000.24,-000.28,0000.49,-000.08,-000.12,0000.44,0000.66,0000.35,21.4,27.6,,00.0,0652.1,31.3
2021-12-11T08:45:00Z,00000200,01000000,0000.34,0000.38,-000.21,-000.12,0000.08,-000.27,0000.18,0000.03,0000.12,21.4,27.6,,00.0,0652.1,31.3
2021-12-11T08:46:00Z,00000200,01000000,0000.18,0000.07,0000.01,0000.06,-000.13,-000.02,0000.14,0000.02,-000.05,21.5,27.6,,00.0,0652.1,31.3
2021-12-11T08:47:00Z,00000200,01000000,-000.51,-000.14,0000.43,0000.69,0000.00,0000.13,0000.37,0000.47,-000.07,21.5,27.7,,00.0,0652.1,31.4
2021-12-11T08:48:00Z,00000200,01000000,0000.71,0000.33,0000.21,0000.94,0000.09,-000.01,-000.23,0000.01,0000.26,21.5,27.7,,00.0,0652.2,31.4
2021-12-11T08:49:00Z,00000200,01000000,0001.00,0000.35,-000.03,-000.15,-000.28,0000.07,0000.41,0000.08,-000.03,21.4,27.7,,00.0,0652.1,31.4
2021-12-11T08:50:00Z,00000200,01000000,0000.79,0000.07,-000.09,0000.82,0000.20,0000.24,-000.08,-000.12,0000.17,21.4,27.7,,00.0,0652.1,31.3
2021-12-11T08:51:00Z,00000200,01000000,0000.66,-000.02,0000.40,-000.00,0000.04,0000.33,0000.12,0000.54,0000.13,21.3,27.6,,00.0,0652.1,31.3
2021-12-11T08:52:00Z,00000200,01000000,0000.86,0000.42,0000.20,0000.75,0000.27,0000.10,0000.28,0000.12,0000.13,21.2,27.6,,00.0,0652.1,31.3
2021-12-11T08:53:00Z,00000200,01000000,0000.17,0000.41,-000.12,0000.09,0000.09,-000.23,0000.17,-000.06,-000.03,21.1,27.5,,00.0,0652.1,31.2
2021-12-11T08:54:00Z,00000200,01000000,-000.12,0000.23,0000.23,0000.05,0000.01,0000.21,0000.30,0000.14,0000.39,21.0,27.5,,00.0,0652.0,31.2
2021-12-11T08:55:00Z,00000200,01000000,0000.28,0000.21,0000.32,-000.02,0000.24,0000.09,0000.11,0000.20,-000.24,20.9,27.4,,00.0,0652.0,31.2
2021-12-11T08:56:00Z,00000200,01000000,0000.97,-000.05,0000.28,0000.18,-000.16,0000.03,0000.15,-000.17,0000.29,20.8,27.4,,00.0,0652.0,31.1
2021-12-11T08:57:00Z,00000200,41000000,,,,,,,-000.16,-000.15,-000.32,20.9,27.4,,00.0,0652.0,31.1
2021-12-11T08:58:00Z,00000200,61000000,,,,,,,0000.05,0000.09,0000.05,20.5,27.4,,00.0,0651.1,31.1
2021-12-11T08:59:00Z,00000200,21000000,,,,,,,0000.03,0000.43,0000.16,20.5,27.5,,00.0,0651.1,31.2
